FW6644 Weather Reports


time (UTC)temp
C
wind
direction
speed
KPH
gust
KPH
rain 1hr
cm
rain 24hr
cm
rain mn
cm
humidity
%
barometer
mb
20260502123033 17 9 0.0 0.0 0.00 0.00 0.00 38 1009.6
20260502121529 18 9 0.0 0.0 0.00 0.00 0.00 37 1009.4
20260502114525 19 336 0.0 1.6 0.00 0.00 0.00 35 1009.3
20260502113024 20 294 0.0 1.6 0.00 0.00 0.00 34 1009.1
20260502111525 18 122 0.0 0.0 0.00 0.00 0.00 34 1009.1
20260502110023 19 163 0.0 0.0 0.00 0.00 0.00 34 1009.1
20260502104529 18 163 0.0 1.6 0.00 0.00 0.00 34 1009.0
20260502103017 19 20 0.0 0.0 0.00 0.00 0.00 34 1008.9
20260502101515 20 20 0.0 0.0 0.00 0.00 0.00 33 1008.8
20260502091505 21 67 0.0 1.6 0.00 0.00 0.00 29 1008.5
20260502080106 22 104 0.0 1.6 0.00 0.00 0.00 29 1008.4
20260502070047 23 157 1.6 6.4 0.00 0.00 0.00 27 1008.0
20260502064546 23 130 3.2 6.4 0.00 0.00 0.00 29 1008.1
20260502063045 23 136 0.0 1.6 0.00 0.00 0.00 29 1008.0
20260502061545 23 145 0.0 1.6 0.00 0.00 0.00 29 1007.8
20260502060044 24 152 0.0 1.6 0.00 0.00 0.00 28 1007.7
20260502054544 24 142 0.0 4.8 0.00 0.00 0.00 27 1007.6
20260502053052 24 129 0.0 1.6 0.00 0.00 0.00 28 1007.5
20260502051555 24 141 0.0 1.6 0.00 0.00 0.00 26 1007.5
20260502050042 25 139 0.0 1.6 0.00 0.00 0.00 24 1007.4
20260502044543 25 158 0.0 1.6 0.00 0.00 0.00 24 1007.4
20260502043142 25 174 0.0 1.6 0.00 0.00 0.00 24 1007.3
20260502041542 25 142 0.0 0.0 0.00 0.00 0.00 24 1007.1
20260502040041 25 149 0.0 1.6 0.00 0.00 0.00 23 1006.9
20260502034540 25 136 0.0 0.0 0.00 0.00 0.00 22 1006.8
20260502033043 26 136 0.0 0.0 0.00 0.00 0.00 20 1006.6
20260502031542 25 156 0.0 0.0 0.00 0.00 0.00 20 1006.4
20260502030040 26 249 0.0 0.0 0.00 0.00 0.00 19 1006.2
20260502024538 27 249 0.0 0.0 0.00 0.00 0.00 18 1006.0
20260502023039 28 243 0.0 1.6 0.00 0.00 0.00 17 1005.9
20260502021536 29 270 0.0 4.8 0.00 0.00 0.00 17 1005.8
20260502020038 30 263 0.0 8.0 0.00 0.00 0.00 17 1005.7
20260502014536 30 330 3.2 11.3 0.00 0.00 0.00 16 1005.6
20260502013039 31 288 3.2 9.7 0.00 0.00 0.00 15 1005.6
20260502011554 31 246 3.2 14.5 0.00 0.00 0.00 16 1005.6
20260502010039 31 321 1.6 11.3 0.00 0.00 0.00 16 1005.6
20260502004552 31 210 6.4 14.5 0.00 0.00 0.00 16 1005.6
20260502003031 31 204 4.8 12.9 0.00 0.00 0.00 17 1005.4
20260502001532 31 255 0.0 9.7 0.00 0.00 0.00 17 1005.5
20260502000030 32 225 0.0 6.4 0.00 0.00 0.00 15 1005.6
20260501234537 31 10 1.6 8.0 0.00 0.00 0.00 17 1005.7
20260501233028 31 284 6.4 16.1 0.00 0.00 0.00 18 1005.7
20260501231537 32 41 0.0 6.4 0.00 0.00 0.00 19 1005.7
20260501230026 31 270 4.8 17.7 0.00 0.00 0.00 19 1005.9
20260501224526 32 243 4.8 14.5 0.00 0.00 0.00 19 1005.9
20260501223024 31 354 1.6 8.0 0.00 0.00 0.00 18 1006.1
20260501221522 32 262 0.0 9.7 0.00 0.00 0.00 17 1006.3
20260501220034 31 229 6.4 16.1 0.00 0.00 0.00 17 1006.5
20260501214520 31 174 1.6 20.9 0.00 0.00 0.00 18 1006.7
20260501213028 32 15 0.0 4.8 0.00 0.00 0.00 18 1007.0
20260501211517 31 240 4.8 11.3 0.00 0.00 0.00 19 1007.2
20260501210016 30 326 0.0 9.7 0.00 0.00 0.00 20 1007.5
20260501204515 30 70 0.0 4.8 0.00 0.00 0.00 21 1007.6
20260501203017 30 256 3.2 12.9 0.00 0.00 0.00 20 1007.8
20260501201513 30 234 4.8 14.5 0.00 0.00 0.00 22 1007.9
20260501200011 31 221 1.6 11.3 0.00 0.00 0.00 21 1008.0
20260501194515 30 74 0.0 9.7 0.00 0.00 0.00 22 1008.1
20260501193019 30 56 0.0 4.8 0.00 0.00 0.00 22 1008.3
20260501191507 30 155 0.0 9.7 0.00 0.00 0.00 23 1008.6
20260501190022 29 159 1.6 8.0 0.00 0.00 0.00 23 1008.9
20260501184506 30 117 0.0 11.3 0.00 0.00 0.00 22 1009.1
20260501183008 30 200 1.6 8.0 0.00 0.00 0.00 23 1009.2
20260501181501 28 160 1.6 6.4 0.00 0.00 0.00 24 1009.6
20260501180100 28 217 0.0 4.8 0.00 0.00 0.00 26 1009.8
20260501174601 27 249 1.6 11.3 0.00 0.00 0.00 27 1009.9
20260501173056 27 102 0.0 6.4 0.00 0.00 0.00 29 1009.9
20260501171556 26 4 0.0 3.2 0.00 0.00 0.00 29 1010.0
20260501170056 27 352 1.6 4.8 0.00 0.00 0.00 29 1009.9
20260501164555 26 141 0.0 11.3 0.00 0.00 0.00 31 1010.0
20260501163052 27 264 0.0 1.6 0.00 0.00 0.00 29 1010.0
20260501161548 26 212 0.0 6.4 0.00 0.00 0.00 31 1010.0
20260501160105 25 186 3.2 9.7 0.00 0.00 0.00 32 1009.9
20260501154621 25 145 1.6 8.0 0.00 0.00 0.00 34 1009.8
20260501153038 24 145 3.2 9.7 0.00 0.00 0.00 36 1009.7
20260501151539 23 203 0.0 11.3 0.00 0.00 0.00 37 1009.5
20260501150052 23 221 1.6 8.0 0.00 0.00 0.00 38 1009.4
20260501144528 22 136 0.0 6.4 0.00 0.00 0.00 40 1009.3
20260501143035 21 120 1.6 11.3 0.00 0.00 0.00 41 1009.2